Location: Indian Hills
(32.9760°N, 85.9450°W)
Time: 18:33:43
(UTC+00:00)

ISS - Pass Details

Date: 14 March 2021
Orbit: 418 x 422 km, 51.6° (Epoch: 17 April)

Event Time Altitude Azimuth Distance (km) Brightness Sun altitude
Exits shadow 09:31:32 13° 92° (E) 1,339 -0.5 -30.5°
Drops below altitude 10° 09:31:59 10° 96° (E) 1,490 -0.2 -30.4°
Sets 09:34:17 0° 110° (ESE) 2,350 0.8 -30.0°
